PAL401 RPME-RPLL

Flight info

Callsign PAL401
Flight time 1h 12m
Altitude 36000
Route BAMP1B JARED W14 MCT W11 CONDE CONDE3R
Aircraft A321/M-SDE3FGHIRWY/LB1

Departure

Time 2026-04-26 13:10
Airport Bancasi Airport (RPME)

Arrival

Time 2026-04-26 14:22
Airport Ninoy Aquino International Airport (RPLL)
Time Latitude Longitude Altitude Speed Heading
2026-04-26 12:42 8.94870 125.48162 51 ft 0 kts 236°
2026-04-26 12:44 8.94894 125.48113 50 ft 0 kts 236°
2026-04-26 13:04 8.94894 125.48111 51 ft 0 kts 262°
2026-04-26 13:05 8.94912 125.48106 51 ft 6 kts 21°
2026-04-26 13:05 8.94931 125.48148 51 ft 7 kts 103°
2026-04-26 13:05 8.94911 125.48192 51 ft 6 kts 117°
2026-04-26 13:05 8.94892 125.48230 52 ft 5 kts 110°
2026-04-26 13:06 8.94898 125.48270 52 ft 6 kts 69°
2026-04-26 13:06 8.94914 125.48314 52 ft 6 kts 69°
2026-04-26 13:06 8.94914 125.48360 52 ft 6 kts 108°
2026-04-26 13:06 8.94894 125.48405 53 ft 6 kts 115°
2026-04-26 13:07 8.94873 125.48449 53 ft 7 kts 117°
2026-04-26 13:07 8.94851 125.48493 54 ft 7 kts 116°
2026-04-26 13:07 8.94828 125.48540 54 ft 7 kts 116°
2026-04-26 13:07 8.94804 125.48589 55 ft 7 kts 118°
2026-04-26 13:08 8.94769 125.48631 55 ft 7 kts 133°
2026-04-26 13:08 8.94772 125.48650 56 ft 4 kts 335°
2026-04-26 13:08 8.94787 125.48623 55 ft 0 kts 294°
2026-04-26 13:09 8.94862 125.48470 54 ft 68 kts 297°
2026-04-26 13:09 8.95205 125.47779 62 ft 146 kts 296°
2026-04-26 13:10 8.95672 125.46795 658 ft 158 kts 297°
2026-04-26 13:10 8.96154 125.45818 1477 ft 158 kts 305°
2026-04-26 13:10 8.96816 125.44978 2084 ft 154 kts 315°
2026-04-26 13:10 8.97591 125.44163 2351 ft 167 kts 317°
2026-04-26 13:11 8.98451 125.43288 2638 ft 182 kts 316°
2026-04-26 13:11 8.99374 125.42341 2941 ft 197 kts 317°
2026-04-26 13:11 9.00375 125.41309 3256 ft 214 kts 316°
2026-04-26 13:11 9.01450 125.40195 3574 ft 230 kts 316°
2026-04-26 13:12 9.02622 125.38972 3840 ft 252 kts 316°
2026-04-26 13:12 9.03890 125.37645 4225 ft 270 kts 316°
2026-04-26 13:12 9.05218 125.36254 4723 ft 282 kts 315°
2026-04-26 13:12 9.06597 125.34804 5420 ft 286 kts 315°
2026-04-26 13:13 9.07974 125.33358 6119 ft 289 kts 315°
2026-04-26 13:13 9.09367 125.31893 6778 ft 293 kts 315°
2026-04-26 13:13 9.10791 125.30397 7457 ft 295 kts 316°
2026-04-26 13:13 9.12234 125.28896 8144 ft 297 kts 316°
2026-04-26 13:14 9.13654 125.27413 8809 ft 298 kts 316°
2026-04-26 13:14 9.15108 125.25893 9447 ft 300 kts 316°
2026-04-26 13:14 9.16564 125.24365 10066 ft 302 kts 316°
2026-04-26 13:14 9.18026 125.22831 10503 ft 311 kts 316°
2026-04-26 13:15 9.19572 125.21210 10756 ft 326 kts 316°
2026-04-26 13:15 9.20250 125.20500 10862 ft 332 kts 316°
2026-04-26 13:15 9.21883 125.18787 11108 ft 346 kts 316°
2026-04-26 13:15 9.23008 125.17605 11298 ft 354 kts 316°
2026-04-26 13:16 9.25310 125.15181 11949 ft 360 kts 315°
2026-04-26 13:16 9.27049 125.13348 12502 ft 362 kts 315°
2026-04-26 13:16 9.28791 125.11510 13026 ft 365 kts 316°
2026-04-26 13:16 9.30575 125.09629 13543 ft 367 kts 316°
2026-04-26 13:17 9.34138 125.05876 14528 ft 372 kts 316°
2026-04-26 13:17 9.35924 125.03991 15003 ft 374 kts 316°
2026-04-26 13:18 9.39542 125.00175 15973 ft 378 kts 315°
2026-04-26 13:18 9.40426 124.99243 16212 ft 379 kts 315°
2026-04-26 13:18 9.44100 124.95367 17148 ft 382 kts 315°
2026-04-26 13:19 9.45931 124.93426 17584 ft 384 kts 315°
2026-04-26 13:19 9.47138 124.92114 17866 ft 385 kts 314°
2026-04-26 13:19 9.49567 124.89436 18392 ft 389 kts 314°
2026-04-26 13:19 9.50807 124.88065 18649 ft 391 kts 314°
2026-04-26 13:20 9.53253 124.85360 19132 ft 395 kts 314°
2026-04-26 13:20 9.55105 124.83311 19490 ft 398 kts 314°
2026-04-26 13:20 9.56997 124.81220 19855 ft 400 kts 314°
2026-04-26 13:20 9.58867 124.79152 20208 ft 403 kts 314°
2026-04-26 13:21 9.60787 124.77032 20564 ft 405 kts 313°
2026-04-26 13:21 9.62061 124.75623 20793 ft 407 kts 313°
2026-04-26 13:21 9.64614 124.72799 21244 ft 410 kts 313°
2026-04-26 13:21 9.66551 124.70654 21578 ft 412 kts 313°
2026-04-26 13:22 9.68475 124.68522 21902 ft 414 kts 313°
2026-04-26 13:22 9.69770 124.67087 22120 ft 415 kts 313°
2026-04-26 13:22 9.72382 124.64196 22543 ft 418 kts 313°
2026-04-26 13:22 9.74337 124.62032 22817 ft 421 kts 313°
2026-04-26 13:23 9.76332 124.59832 23084 ft 424 kts 313°
2026-04-26 13:23 9.78352 124.57610 23359 ft 426 kts 313°
2026-04-26 13:23 9.80367 124.55393 23646 ft 428 kts 313°
2026-04-26 13:23 9.82397 124.53154 23931 ft 430 kts 313°
2026-04-26 13:24 9.84416 124.50925 24217 ft 432 kts 313°
2026-04-26 13:24 9.86452 124.48674 24501 ft 434 kts 312°
2026-04-26 13:24 9.88509 124.46400 24763 ft 436 kts 312°
2026-04-26 13:24 9.90564 124.44125 25008 ft 438 kts 312°
2026-04-26 13:25 9.92600 124.41871 25258 ft 440 kts 312°
2026-04-26 13:25 9.94684 124.39562 25519 ft 442 kts 312°
2026-04-26 13:25 9.96764 124.37256 25773 ft 444 kts 312°
2026-04-26 13:25 9.98850 124.34943 26033 ft 445 kts 312°
2026-04-26 13:26 10.00958 124.32597 26264 ft 447 kts 311°
2026-04-26 13:26 10.03036 124.30283 26514 ft 449 kts 311°
2026-04-26 13:26 10.05159 124.27927 26755 ft 451 kts 311°
2026-04-26 13:26 10.07272 124.25590 26991 ft 452 kts 311°
2026-04-26 13:27 10.09394 124.23241 27229 ft 454 kts 311°
2026-04-26 13:27 10.11547 124.20863 27463 ft 455 kts 311°
2026-04-26 13:27 10.13678 124.18516 27690 ft 456 kts 311°
2026-04-26 13:27 10.15830 124.16145 27911 ft 458 kts 311°
2026-04-26 13:28 10.17985 124.13759 28124 ft 460 kts 311°
2026-04-26 13:28 10.20165 124.11339 28325 ft 461 kts 311°
2026-04-26 13:28 10.22317 124.08948 28521 ft 463 kts 311°
2026-04-26 13:28 10.24509 124.06512 28730 ft 465 kts 311°
2026-04-26 13:29 10.26703 124.04077 28932 ft 466 kts 311°
2026-04-26 13:29 10.28174 124.02486 29067 ft 467 kts 313°
2026-04-26 13:29 10.31326 123.99439 29347 ft 470 kts 317°
2026-04-26 13:29 10.33835 123.97324 29578 ft 471 kts 321°
2026-04-26 13:30 10.36469 123.95358 29913 ft 469 kts 324°
2026-04-26 13:30 10.39152 123.93481 30176 ft 469 kts 324°
2026-04-26 13:30 10.41851 123.91612 30413 ft 469 kts 324°
2026-04-26 13:30 10.44539 123.89753 30702 ft 468 kts 324°
2026-04-26 13:31 10.47238 123.87883 31001 ft 467 kts 324°
2026-04-26 13:31 10.49929 123.86016 31281 ft 467 kts 324°
2026-04-26 13:31 10.52620 123.84145 31542 ft 466 kts 324°
2026-04-26 13:31 10.55293 123.82283 31803 ft 466 kts 324°
2026-04-26 13:32 10.57941 123.80437 32075 ft 465 kts 324°
2026-04-26 13:32 10.60629 123.78564 32324 ft 465 kts 324°
2026-04-26 13:32 10.63308 123.76695 32577 ft 465 kts 324°
2026-04-26 13:32 10.65949 123.74857 32869 ft 465 kts 324°
2026-04-26 13:33 10.68623 123.73002 33186 ft 464 kts 324°
2026-04-26 13:33 10.71311 123.71138 33521 ft 463 kts 324°
2026-04-26 13:33 10.73935 123.69316 33858 ft 461 kts 324°
2026-04-26 13:33 10.76583 123.67474 34190 ft 460 kts 324°
2026-04-26 13:34 10.79251 123.65614 34493 ft 460 kts 324°
2026-04-26 13:34 10.81885 123.63777 34744 ft 460 kts 324°
2026-04-26 13:34 10.84528 123.61933 34966 ft 461 kts 324°
2026-04-26 13:34 10.86297 123.60697 35114 ft 461 kts 324°
2026-04-26 13:35 10.89814 123.58239 35404 ft 462 kts 324°
2026-04-26 13:35 10.92468 123.56383 35608 ft 463 kts 324°
2026-04-26 13:35 10.95134 123.54517 35796 ft 463 kts 324°
2026-04-26 13:36 11.00459 123.50796 35864 ft 465 kts 323°
2026-04-26 13:36 11.05813 123.47077 35864 ft 465 kts 324°
2026-04-26 13:37 11.10266 123.43978 35868 ft 465 kts 324°
2026-04-26 13:37 11.16512 123.39645 35870 ft 465 kts 324°
2026-04-26 13:38 11.21873 123.35913 35871 ft 465 kts 323°
2026-04-26 13:38 11.27196 123.32179 35869 ft 465 kts 323°
2026-04-26 13:39 11.32518 123.28432 35869 ft 465 kts 323°
2026-04-26 13:39 11.37847 123.24692 35870 ft 465 kts 323°
2026-04-26 13:40 11.43199 123.20940 35870 ft 465 kts 323°
2026-04-26 13:40 11.48532 123.17203 35872 ft 464 kts 323°
2026-04-26 13:41 11.53827 123.13490 35871 ft 464 kts 323°
2026-04-26 13:41 11.59165 123.09747 35879 ft 464 kts 323°
2026-04-26 13:42 11.64513 123.05996 35883 ft 464 kts 323°
2026-04-26 13:42 11.69803 123.02282 35885 ft 464 kts 323°
2026-04-26 13:43 11.75116 122.98551 35883 ft 464 kts 323°
2026-04-26 13:43 11.80462 122.94795 35883 ft 464 kts 323°
2026-04-26 13:44 11.85772 122.91061 35882 ft 463 kts 323°
2026-04-26 13:44 11.91089 122.87322 35883 ft 463 kts 323°
2026-04-26 13:45 11.96393 122.83589 35883 ft 463 kts 322°
2026-04-26 13:45 12.00803 122.80483 35884 ft 463 kts 322°
2026-04-26 13:46 12.06969 122.76138 35885 ft 462 kts 323°
2026-04-26 13:46 12.12278 122.72401 35884 ft 462 kts 323°
2026-04-26 13:47 12.17594 122.68671 35884 ft 463 kts 322°
2026-04-26 13:47 12.22914 122.64923 35885 ft 463 kts 323°
2026-04-26 13:48 12.28195 122.61187 35885 ft 462 kts 322°
2026-04-26 13:48 12.33507 122.57424 35885 ft 462 kts 322°
2026-04-26 13:49 12.38800 122.53689 35885 ft 462 kts 323°
2026-04-26 13:49 12.44093 122.49973 35885 ft 462 kts 322°
2026-04-26 13:50 12.49406 122.46227 35888 ft 461 kts 323°
2026-04-26 13:50 12.54663 122.42512 35886 ft 460 kts 322°
2026-04-26 13:51 12.59941 122.38778 35885 ft 461 kts 322°
2026-04-26 13:51 12.65230 122.35032 35884 ft 461 kts 322°
2026-04-26 13:52 12.69603 122.31915 35887 ft 460 kts 322°
2026-04-26 13:52 12.75740 122.27537 35885 ft 460 kts 322°
2026-04-26 13:53 12.81011 122.23789 35886 ft 459 kts 322°
2026-04-26 13:53 12.86259 122.20061 35885 ft 459 kts 322°
2026-04-26 13:54 12.91495 122.16342 35887 ft 458 kts 322°
2026-04-26 13:54 12.96720 122.12629 35886 ft 458 kts 322°
2026-04-26 13:55 13.01948 122.08914 35229 ft 454 kts 322°
2026-04-26 13:55 13.03685 122.07679 34478 ft 460 kts 322°
2026-04-26 13:55 13.09963 122.03205 31642 ft 483 kts 322°
2026-04-26 13:56 13.12721 122.01248 30702 ft 485 kts 323°
2026-04-26 13:56 13.15503 121.99281 29925 ft 484 kts 323°
2026-04-26 13:56 13.18271 121.97322 29459 ft 475 kts 323°
2026-04-26 13:56 13.20962 121.95416 29019 ft 467 kts 323°
2026-04-26 13:57 13.23616 121.93529 28572 ft 460 kts 322°
2026-04-26 13:57 13.26232 121.91667 28124 ft 454 kts 323°
2026-04-26 13:57 13.28804 121.89831 27675 ft 447 kts 323°
2026-04-26 13:57 13.31321 121.88034 27212 ft 442 kts 323°
2026-04-26 13:58 13.33853 121.86225 26752 ft 437 kts 323°
2026-04-26 13:58 13.36318 121.84464 26287 ft 432 kts 323°
2026-04-26 13:58 13.38776 121.82709 25833 ft 427 kts 323°
2026-04-26 13:58 13.41176 121.80994 25411 ft 421 kts 323°
2026-04-26 13:59 13.43585 121.79271 24985 ft 415 kts 323°
2026-04-26 13:59 13.45944 121.77583 24548 ft 411 kts 323°
2026-04-26 13:59 13.48256 121.75929 24118 ft 406 kts 323°
2026-04-26 14:00 13.53590 121.72111 23161 ft 395 kts 324°
2026-04-26 14:00 13.57333 121.69430 22461 ft 388 kts 324°
2026-04-26 14:00 13.58806 121.68373 22186 ft 386 kts 324°
2026-04-26 14:01 13.61722 121.66282 21616 ft 382 kts 324°
2026-04-26 14:01 13.63171 121.65243 21312 ft 382 kts 324°
2026-04-26 14:01 13.66060 121.63176 20702 ft 380 kts 324°
2026-04-26 14:01 13.68202 121.61583 20235 ft 379 kts 322°
2026-04-26 14:02 13.70245 121.59873 19760 ft 378 kts 319°
2026-04-26 14:02 13.72222 121.58088 19291 ft 377 kts 318°
2026-04-26 14:02 13.74174 121.56302 18817 ft 376 kts 317°
2026-04-26 14:02 13.76121 121.54517 18339 ft 376 kts 317°
2026-04-26 14:03 13.78071 121.52728 17864 ft 375 kts 318°
2026-04-26 14:03 13.80022 121.50939 17377 ft 375 kts 318°
2026-04-26 14:03 13.81962 121.49162 16896 ft 375 kts 318°
2026-04-26 14:03 13.83904 121.47382 16415 ft 374 kts 318°
2026-04-26 14:04 13.85844 121.45602 15937 ft 374 kts 318°
2026-04-26 14:04 13.87786 121.43822 15448 ft 373 kts 318°
2026-04-26 14:04 13.89729 121.42039 14961 ft 372 kts 319°
2026-04-26 14:04 13.91663 121.40263 14474 ft 372 kts 319°
2026-04-26 14:05 13.93575 121.38509 13981 ft 372 kts 319°
2026-04-26 14:05 13.95518 121.36724 13479 ft 371 kts 319°
2026-04-26 14:05 13.97435 121.34963 12990 ft 371 kts 318°
2026-04-26 14:05 13.99204 121.33330 12553 ft 369 kts 318°
2026-04-26 14:06 14.01069 121.31605 12099 ft 367 kts 319°
2026-04-26 14:06 14.02952 121.29858 11635 ft 366 kts 317°
2026-04-26 14:06 14.04608 121.27847 11155 ft 365 kts 304°
2026-04-26 14:06 14.05779 121.25564 10696 ft 364 kts 293°
2026-04-26 14:07 14.06710 121.23134 10295 ft 360 kts 291°
2026-04-26 14:07 14.07567 121.20766 10192 ft 346 kts 291°
2026-04-26 14:07 14.08390 121.18491 10096 ft 334 kts 291°
2026-04-26 14:07 14.09196 121.16290 9970 ft 323 kts 291°
2026-04-26 14:08 14.10001 121.14106 9665 ft 319 kts 291°
2026-04-26 14:08 14.10790 121.12004 9389 ft 314 kts 292°
2026-04-26 14:08 14.11578 121.09924 9120 ft 310 kts 292°
2026-04-26 14:08 14.12353 121.07864 8855 ft 305 kts 292°
2026-04-26 14:09 14.13116 121.05829 8596 ft 301 kts 292°
2026-04-26 14:09 14.13859 121.03837 8313 ft 297 kts 292°
2026-04-26 14:09 14.14591 121.01872 7829 ft 292 kts 292°
2026-04-26 14:09 14.15305 120.99953 7430 ft 283 kts 292°
2026-04-26 14:10 14.15986 120.98084 6955 ft 278 kts 288°
2026-04-26 14:10 14.16254 120.96121 6486 ft 279 kts 271°
2026-04-26 14:10 14.16229 120.94102 6008 ft 284 kts 268°
2026-04-26 14:10 14.16149 120.92041 5534 ft 287 kts 268°
2026-04-26 14:11 14.15977 120.88194 5646 ft 252 kts 268°
2026-04-26 14:11 14.15898 120.86436 5637 ft 241 kts 268°
2026-04-26 14:11 14.15854 120.85302 5620 ft 232 kts 271°
2026-04-26 14:12 14.16200 120.83758 5566 ft 218 kts 304°
2026-04-26 14:12 14.18417 120.81168 5587 ft 216 kts 317°
2026-04-26 14:12 14.19494 120.80073 5585 ft 216 kts 318°
2026-04-26 14:13 14.21655 120.77883 5445 ft 217 kts 318°
2026-04-26 14:13 14.22740 120.76783 5183 ft 217 kts 318°
2026-04-26 14:13 14.23815 120.75693 4937 ft 216 kts 318°
2026-04-26 14:14 14.24879 120.74616 4697 ft 214 kts 318°
2026-04-26 14:14 14.25938 120.73544 4459 ft 213 kts 318°
2026-04-26 14:14 14.27004 120.72475 4239 ft 211 kts 322°
2026-04-26 14:14 14.28274 120.71818 3995 ft 202 kts 358°
2026-04-26 14:15 14.29640 120.72012 3799 ft 197 kts 22°
2026-04-26 14:15 14.30950 120.72566 3588 ft 213 kts 26°
2026-04-26 14:15 14.32379 120.73257 3376 ft 236 kts 27°
2026-04-26 14:15 14.33745 120.74182 3139 ft 235 kts 47°
2026-04-26 14:16 14.34765 120.75453 3023 ft 226 kts 53°
2026-04-26 14:16 14.35831 120.76633 2906 ft 219 kts 43°
2026-04-26 14:16 14.36927 120.77668 2896 ft 210 kts 46°
2026-04-26 14:16 14.37872 120.78819 2904 ft 209 kts 55°
2026-04-26 14:17 14.38677 120.80075 2935 ft 210 kts 59°
2026-04-26 14:17 14.39420 120.81355 2960 ft 209 kts 60°
2026-04-26 14:17 14.40152 120.82660 3009 ft 205 kts 60°
2026-04-26 14:17 14.40823 120.83868 3142 ft 182 kts 60°
2026-04-26 14:18 14.41412 120.84931 3164 ft 161 kts 60°
2026-04-26 14:18 14.41978 120.85952 3053 ft 169 kts 61°
2026-04-26 14:18 14.42569 120.87018 2829 ft 171 kts 61°
2026-04-26 14:18 14.43161 120.88085 2605 ft 171 kts 60°
2026-04-26 14:19 14.43755 120.89157 2376 ft 171 kts 60°
2026-04-26 14:19 14.44346 120.90220 2153 ft 169 kts 60°
2026-04-26 14:19 14.44908 120.91235 1926 ft 155 kts 60°
2026-04-26 14:19 14.45433 120.92179 1722 ft 150 kts 60°
2026-04-26 14:20 14.45952 120.93115 1534 ft 149 kts 59°
2026-04-26 14:20 14.46470 120.94047 1346 ft 149 kts 59°
2026-04-26 14:20 14.46988 120.94979 1158 ft 149 kts 61°
2026-04-26 14:20 14.47497 120.95894 976 ft 148 kts 61°
2026-04-26 14:21 14.48010 120.96816 786 ft 148 kts 62°
2026-04-26 14:21 14.48525 120.97744 603 ft 147 kts 62°
2026-04-26 14:21 14.49035 120.98662 417 ft 147 kts 61°
2026-04-26 14:21 14.49541 120.99573 224 ft 148 kts 62°
2026-04-26 14:22 14.50051 121.00491 85 ft 143 kts 62°
2026-04-26 14:22 14.50433 121.01182 82 ft 67 kts 60°
2026-04-26 14:22 14.50626 121.01528 82 ft 30 kts 60°
2026-04-26 14:22 14.50705 121.01654 82 ft 20 kts 49°
2026-04-26 14:23 14.50794 121.01739 82 ft 15 kts 38°
2026-04-26 14:23 14.50857 121.01787 82 ft 7 kts 20°
2026-04-26 14:23 14.50903 121.01764 82 ft 8 kts 290°
2026-04-26 14:23 14.50884 121.01704 82 ft 8 kts 252°
2026-04-26 14:24 14.50896 121.01664 82 ft 9 kts 309°
2026-04-26 14:24 14.50910 121.01646 82 ft 9 kts 300°
2026-04-26 14:24 14.50860 121.01514 82 ft 11 kts 240°
2026-04-26 14:24 14.50821 121.01442 82 ft 11 kts 240°
2026-04-26 14:25 14.50785 121.01378 82 ft 4 kts 241°
2026-04-26 14:25 14.50795 121.01350 82 ft 5 kts 326°
2026-04-26 14:25 14.50829 121.01329 82 ft 6 kts 331°
2026-04-26 14:25 14.50863 121.01310 82 ft 2 kts 331°
2026-04-26 14:26 14.50867 121.01308 82 ft 0 kts 331°